| time (UTC) | temp C | wind direction | speed KPH | gust KPH | rain 1hr cm | rain 24hr cm | rain mn cm | humidity % | barometer mb |
| 20260505140536 | 22 | 205 | 25.7 | 29.0 | 0.00 | 0.00 | 0.00 | 83 | 1006.6 |
| 20260505124949 | 21 | 185 | 20.9 | 25.7 | 0.00 | 0.00 | 0.00 | 85 | 1006.5 |
| 20260505124446 | 21 | 197 | 14.5 | 16.1 | 0.00 | 0.00 | 0.00 | 85 | 1006.3 |
| 20260505123942 | 21 | 181 | 14.5 | 17.7 | 0.00 | 0.00 | 0.00 | 85 | 1006.5 |
| 20260505123439 | 21 | 211 | 17.7 | 22.5 | 0.00 | 0.00 | 0.00 | 84 | 1006.4 |
| 20260505122935 | 21 | 196 | 19.3 | 22.5 | 0.00 | 0.00 | 0.00 | 84 | 1006.3 |
| 20260505122432 | 21 | 195 | 17.7 | 20.9 | 0.00 | 0.00 | 0.00 | 84 | 1006.3 |
| 20260505121929 | 21 | 222 | 14.5 | 14.5 | 0.00 | 0.00 | 0.00 | 84 | 1006.3 |
| 20260505121426 | 21 | 209 | 16.1 | 17.7 | 0.00 | 0.00 | 0.00 | 84 | 1006.0 |
| 20260505120921 | 21 | 212 | 20.9 | 25.7 | 0.00 | 0.00 | 0.00 | 84 | 1006.1 |
| 20260505120418 | 21 | 207 | 20.9 | 25.7 | 0.00 | 0.00 | 0.00 | 84 | 1006.1 |
| 20260505115917 | 21 | 203 | 17.7 | 20.9 | 0.00 | 0.00 | 0.00 | 84 | 1006.0 |
| 20260505115414 | 21 | 209 | 17.7 | 17.7 | 0.00 | 0.00 | 0.00 | 85 | 1006.2 |
| 20260505114912 | 21 | 194 | 14.5 | 16.1 | 0.00 | 0.00 | 0.00 | 84 | 1006.1 |
| 20260505114408 | 21 | 198 | 17.7 | 20.9 | 0.00 | 0.00 | 0.00 | 85 | 1006.0 |
| 20260505113904 | 21 | 217 | 14.5 | 17.7 | 0.00 | 0.00 | 0.00 | 85 | 1005.9 |
| 20260505113401 | 21 | 190 | 11.3 | 14.5 | 0.00 | 0.00 | 0.00 | 85 | 1006.0 |
| 20260505112857 | 21 | 205 | 17.7 | 22.5 | 0.00 | 0.00 | 0.00 | 85 | 1005.8 |
| 20260505112355 | 21 | 218 | 14.5 | 17.7 | 0.00 | 0.00 | 0.00 | 85 | 1005.6 |
| 20260505111850 | 21 | 215 | 22.5 | 27.4 | 0.00 | 0.00 | 0.00 | 84 | 1005.7 |
| 20260505111346 | 21 | 197 | 14.5 | 17.7 | 0.00 | 0.00 | 0.00 | 84 | 1005.7 |
| 20260505110842 | 21 | 180 | 19.3 | 24.1 | 0.00 | 0.00 | 0.00 | 84 | 1005.6 |
| 20260505110340 | 21 | 211 | 22.5 | 25.7 | 0.00 | 0.00 | 0.00 | 84 | 1005.6 |
| 20260505101814 | 21 | 204 | 22.5 | 25.7 | 0.00 | 0.00 | 0.00 | 84 | 1005.9 |
| 20260505101311 | 21 | 217 | 27.4 | 33.8 | 0.00 | 0.00 | 0.00 | 84 | 1006.0 |
| 20260505100807 | 21 | 212 | 24.1 | 29.0 | 0.00 | 0.00 | 0.00 | 84 | 1005.9 |
| 20260505100304 | 21 | 216 | 16.1 | 24.1 | 0.00 | 0.00 | 0.00 | 84 | 1006.0 |
| 20260505095759 | 21 | 203 | 14.5 | 16.1 | 0.00 | 0.00 | 0.00 | 84 | 1006.0 |
| 20260505095257 | 21 | 206 | 14.5 | 20.9 | 0.00 | 0.00 | 0.00 | 84 | 1006.1 |
| 20260505094752 | 21 | 192 | 19.3 | 24.1 | 0.00 | 0.00 | 0.00 | 84 | 1006.0 |
| 20260505094249 | 21 | 209 | 19.3 | 20.9 | 0.00 | 0.00 | 0.00 | 84 | 1006.2 |
| 20260505093745 | 21 | 195 | 14.5 | 16.1 | 0.00 | 0.00 | 0.00 | 84 | 1006.3 |
| 20260505093243 | 21 | 229 | 17.7 | 22.5 | 0.00 | 0.00 | 0.00 | 84 | 1006.1 |
| 20260505092739 | 21 | 219 | 20.9 | 22.5 | 0.00 | 0.00 | 0.00 | 84 | 1006.3 |
| 20260505092238 | 21 | 207 | 17.7 | 22.5 | 0.00 | 0.00 | 0.00 | 84 | 1006.3 |
| 20260505091734 | 21 | 221 | 19.3 | 24.1 | 0.00 | 0.00 | 0.00 | 84 | 1006.3 |
| 20260505091233 | 21 | 219 | 19.3 | 24.1 | 0.00 | 0.00 | 0.00 | 84 | 1006.4 |
| 20260505090730 | 21 | 194 | 19.3 | 27.4 | 0.00 | 0.00 | 0.00 | 84 | 1006.3 |
| 20260505090228 | 21 | 215 | 20.9 | 25.7 | 0.00 | 0.00 | 0.00 | 84 | 1006.1 |
| 20260505085725 | 21 | 209 | 25.7 | 29.0 | 0.00 | 0.00 | 0.00 | 84 | 1006.2 |
| 20260505085223 | 21 | 200 | 24.1 | 27.4 | 0.00 | 0.00 | 0.00 | 84 | 1006.3 |
| 20260505084720 | 21 | 215 | 27.4 | 32.2 | 0.00 | 0.00 | 0.00 | 84 | 1006.2 |
| 20260505084220 | 21 | 197 | 19.3 | 24.1 | 0.00 | 0.00 | 0.00 | 84 | 1006.1 |
| 20260505083716 | 21 | 181 | 17.7 | 22.5 | 0.00 | 0.00 | 0.00 | 84 | 1006.0 |
| 20260505083213 | 21 | 202 | 24.1 | 27.4 | 0.00 | 0.00 | 0.00 | 84 | 1006.0 |
| 20260505082708 | 21 | 217 | 16.1 | 20.9 | 0.00 | 0.00 | 0.00 | 84 | 1006.0 |
| 20260505082206 | 21 | 199 | 14.5 | 17.7 | 0.00 | 0.00 | 0.00 | 83 | 1006.2 |
| 20260505081701 | 21 | 200 | 25.7 | 29.0 | 0.00 | 0.00 | 0.00 | 84 | 1006.1 |
| 20260505081159 | 21 | 224 | 14.5 | 17.7 | 0.00 | 0.00 | 0.00 | 84 | 1006.2 |
| 20260505080656 | 21 | 216 | 19.3 | 22.5 | 0.00 | 0.00 | 0.00 | 83 | 1006.3 |
| 20260505080152 | 21 | 197 | 30.6 | 33.8 | 0.00 | 0.00 | 0.00 | 83 | 1006.4 |
| 20260505075648 | 21 | 202 | 19.3 | 25.7 | 0.00 | 0.00 | 0.00 | 83 | 1006.8 |
| 20260505075145 | 21 | 187 | 19.3 | 22.5 | 0.00 | 0.00 | 0.00 | 83 | 1006.6 |
| 20260505074643 | 21 | 212 | 16.1 | 17.7 | 0.00 | 0.00 | 0.00 | 83 | 1006.6 |
| 20260505074139 | 21 | 189 | 19.3 | 22.5 | 0.00 | 0.00 | 0.00 | 83 | 1006.7 |
| 20260505073637 | 21 | 237 | 19.3 | 24.1 | 0.00 | 0.00 | 0.00 | 82 | 1006.6 |
| 20260505073135 | 21 | 229 | 16.1 | 20.9 | 0.00 | 0.00 | 0.00 | 82 | 1006.8 |
| 20260505072630 | 21 | 210 | 17.7 | 20.9 | 0.00 | 0.00 | 0.00 | 82 | 1006.8 |
| 20260505072127 | 21 | 200 | 19.3 | 22.5 | 0.00 | 0.00 | 0.00 | 81 | 1006.7 |
| 20260505071622 | 21 | 217 | 19.3 | 22.5 | 0.00 | 0.00 | 0.00 | 81 | 1007.0 |
| 20260505071120 | 21 | 200 | 19.3 | 20.9 | 0.00 | 0.00 | 0.00 | 81 | 1007.1 |
| 20260505070617 | 21 | 203 | 17.7 | 20.9 | 0.00 | 0.00 | 0.00 | 81 | 1006.8 |
| 20260505070113 | 21 | 202 | 16.1 | 22.5 | 0.00 | 0.00 | 0.00 | 81 | 1007.0 |
| 20260505065610 | 21 | 217 | 16.1 | 17.7 | 0.00 | 0.00 | 0.00 | 81 | 1007.0 |
| 20260505065106 | 21 | 207 | 16.1 | 20.9 | 0.00 | 0.00 | 0.00 | 80 | 1007.1 |
| 20260505064603 | 21 | 196 | 22.5 | 25.7 | 0.00 | 0.00 | 0.00 | 80 | 1006.8 |
| 20260505064102 | 21 | 207 | 24.1 | 32.2 | 0.00 | 0.00 | 0.00 | 80 | 1007.1 |
| 20260505063558 | 21 | 212 | 24.1 | 29.0 | 0.00 | 0.00 | 0.00 | 80 | 1007.0 |
| 20260505063054 | 21 | 215 | 14.5 | 17.7 | 0.00 | 0.00 | 0.00 | 79 | 1007.1 |
| 20260505062551 | 21 | 185 | 17.7 | 20.9 | 0.00 | 0.00 | 0.00 | 79 | 1007.2 |
| 20260505062049 | 21 | 213 | 22.5 | 25.7 | 0.00 | 0.00 | 0.00 | 79 | 1007.3 |
| 20260505061546 | 21 | 191 | 22.5 | 24.1 | 0.00 | 0.00 | 0.00 | 78 | 1007.3 |
| 20260505061044 | 21 | 223 | 22.5 | 29.0 | 0.00 | 0.00 | 0.00 | 78 | 1007.2 |
| 20260505060541 | 21 | 193 | 20.9 | 24.1 | 0.00 | 0.00 | 0.00 | 78 | 1007.3 |
| 20260505060038 | 22 | 210 | 22.5 | 25.7 | 0.00 | 0.00 | 0.00 | 78 | 1007.3 |
| 20260505055533 | 22 | 161 | 20.9 | 27.4 | 0.00 | 0.00 | 0.00 | 77 | 1007.3 |
| 20260505055030 | 22 | 138 | 19.3 | 22.5 | 0.00 | 0.00 | 0.00 | 77 | 1007.4 |
| 20260505054527 | 22 | 188 | 24.1 | 32.2 | 0.00 | 0.00 | 0.00 | 77 | 1007.5 |
| 20260505054025 | 22 | 205 | 25.7 | 27.4 | 0.00 | 0.00 | 0.00 | 77 | 1007.5 |
| 20260505053522 | 22 | 210 | 17.7 | 22.5 | 0.00 | 0.00 | 0.00 | 76 | 1007.3 |
| 20260505053019 | 22 | 193 | 24.1 | 27.4 | 0.00 | 0.00 | 0.00 | 76 | 1007.5 |
| 20260505052516 | 22 | 174 | 14.5 | 17.7 | 0.00 | 0.00 | 0.00 | 76 | 1007.4 |
| 20260505052013 | 22 | 198 | 16.1 | 20.9 | 0.00 | 0.00 | 0.00 | 75 | 1007.6 |
| 20260505051504 | 22 | 190 | 22.5 | 27.4 | 0.00 | 0.00 | 0.00 | 75 | 1007.7 |
| 20260505051003 | 22 | 202 | 17.7 | 25.7 | 0.00 | 0.00 | 0.00 | 75 | 1007.8 |
| 20260505050500 | 22 | 222 | 20.9 | 24.1 | 0.00 | 0.00 | 0.00 | 75 | 1007.6 |
| 20260505041428 | 21 | 174 | 14.5 | 16.1 | 0.00 | 0.00 | 0.00 | 74 | 1008.3 |
| 20260505040925 | 21 | 161 | 11.3 | 14.5 | 0.00 | 0.00 | 0.00 | 74 | 1008.2 |
| 20260505040423 | 21 | 199 | 12.9 | 14.5 | 0.00 | 0.00 | 0.00 | 74 | 1008.1 |
| 20260505035919 | 21 | 195 | 14.5 | 14.5 | 0.00 | 0.00 | 0.00 | 74 | 1008.2 |
| 20260505035415 | 21 | 174 | 12.9 | 14.5 | 0.00 | 0.00 | 0.00 | 74 | 1007.9 |
| 20260505034913 | 21 | 192 | 11.3 | 12.9 | 0.00 | 0.00 | 0.00 | 73 | 1008.0 |
| 20260505034409 | 22 | 163 | 8.0 | 11.3 | 0.00 | 0.00 | 0.00 | 73 | 1007.9 |
| 20260505033906 | 22 | 185 | 11.3 | 11.3 | 0.00 | 0.00 | 0.00 | 72 | 1008.3 |
| 20260505033403 | 22 | 176 | 11.3 | 14.5 | 0.00 | 0.00 | 0.00 | 72 | 1008.4 |
| 20260505032901 | 22 | 180 | 14.5 | 17.7 | 0.00 | 0.00 | 0.00 | 71 | 1008.1 |
| 20260505032357 | 22 | 193 | 14.5 | 16.1 | 0.00 | 0.00 | 0.00 | 71 | 1008.2 |
| 20260505031854 | 22 | 172 | 11.3 | 14.5 | 0.00 | 0.00 | 0.00 | 71 | 1008.3 |
| 20260505031351 | 22 | 199 | 22.5 | 25.7 | 0.00 | 0.00 | 0.00 | 70 | 1008.2 |
| 20260505030849 | 22 | 193 | 11.3 | 14.5 | 0.00 | 0.00 | 0.00 | 70 | 1008.3 |
| 20260505030344 | 22 | 192 | 12.9 | 14.5 | 0.00 | 0.00 | 0.00 | 69 | 1008.1 |
| 20260505025840 | 22 | 186 | 16.1 | 20.9 | 0.00 | 0.00 | 0.00 | 69 | 1008.2 |
| 20260505025337 | 22 | 190 | 11.3 | 14.5 | 0.00 | 0.00 | 0.00 | 69 | 1008.0 |
| 20260505024836 | 22 | 189 | 12.9 | 14.5 | 0.00 | 0.00 | 0.00 | 69 | 1008.2 |
| 20260505024333 | 22 | 139 | 14.5 | 17.7 | 0.00 | 0.00 | 0.00 | 69 | 1008.2 |
| 20260505023830 | 22 | 172 | 17.7 | 20.9 | 0.00 | 0.00 | 0.00 | 69 | 1007.9 |
| 20260505023327 | 22 | 187 | 17.7 | 20.9 | 0.00 | 0.00 | 0.00 | 68 | 1008.2 |
| 20260505022825 | 22 | 165 | 19.3 | 22.5 | 0.00 | 0.00 | 0.00 | 68 | 1008.2 |
| 20260505022321 | 22 | 183 | 16.1 | 20.9 | 0.00 | 0.00 | 0.00 | 68 | 1007.9 |
| 20260505021819 | 22 | 197 | 16.1 | 17.7 | 0.00 | 0.00 | 0.00 | 68 | 1007.8 |
| 20260505021315 | 22 | 211 | 12.9 | 16.1 | 0.00 | 0.00 | 0.00 | 68 | 1008.1 |
| 20260505020811 | 22 | 179 | 17.7 | 20.9 | 0.00 | 0.00 | 0.00 | 67 | 1008.0 |
| 20260505020307 | 22 | 166 | 17.7 | 20.9 | 0.00 | 0.00 | 0.00 | 67 | 1007.7 |
| 20260505015804 | 22 | 207 | 16.1 | 20.9 | 0.00 | 0.00 | 0.00 | 67 | 1008.0 |
| 20260505015301 | 22 | 183 | 16.1 | 17.7 | 0.00 | 0.00 | 0.00 | 67 | 1007.8 |
| 20260505014758 | 23 | 203 | 14.5 | 17.7 | 0.00 | 0.00 | 0.00 | 67 | 1008.0 |
| 20260505014255 | 23 | 186 | 17.7 | 20.9 | 0.00 | 0.00 | 0.00 | 67 | 1007.9 |
| 20260505013751 | 23 | 196 | 12.9 | 16.1 | 0.00 | 0.00 | 0.00 | 66 | 1007.9 |
| 20260505013248 | 23 | 199 | 16.1 | 17.7 | 0.00 | 0.00 | 0.00 | 67 | 1008.1 |
| 20260505012747 | 23 | 203 | 14.5 | 14.5 | 0.00 | 0.00 | 0.00 | 66 | 1007.8 |
| 20260505012244 | 23 | 193 | 16.1 | 20.9 | 0.00 | 0.00 | 0.00 | 65 | 1007.8 |
| 20260505011739 | 23 | 182 | 14.5 | 16.1 | 0.00 | 0.00 | 0.00 | 65 | 1007.9 |
| 20260505011236 | 23 | 176 | 11.3 | 14.5 | 0.00 | 0.00 | 0.00 | 65 | 1008.0 |
| 20260505010732 | 23 | 192 | 11.3 | 14.5 | 0.00 | 0.00 | 0.00 | 64 | 1008.2 |
| 20260505010228 | 23 | 202 | 12.9 | 16.1 | 0.00 | 0.00 | 0.00 | 63 | 1008.0 |
| 20260505005725 | 23 | 190 | 11.3 | 12.9 | 0.00 | 0.00 | 0.00 | 63 | 1007.9 |
| 20260505005222 | 24 | 175 | 19.3 | 22.5 | 0.00 | 0.00 | 0.00 | 62 | 1007.8 |
| 20260505004719 | 24 | 202 | 12.9 | 14.5 | 0.00 | 0.00 | 0.00 | 62 | 1008.1 |
| 20260505004216 | 24 | 202 | 17.7 | 20.9 | 0.00 | 0.00 | 0.00 | 61 | 1008.0 |
| 20260505003713 | 24 | 189 | 19.3 | 25.7 | 0.00 | 0.00 | 0.00 | 61 | 1007.9 |
| 20260505003211 | 24 | 206 | 19.3 | 22.5 | 0.00 | 0.00 | 0.00 | 60 | 1008.0 |
| 20260505002706 | 25 | 196 | 19.3 | 24.1 | 0.00 | 0.00 | 0.00 | 60 | 1008.0 |
| 20260505002204 | 25 | 207 | 14.5 | 22.5 | 0.00 | 0.00 | 0.00 | 60 | 1008.0 |
| 20260505001701 | 25 | 198 | 12.9 | 16.1 | 0.00 | 0.00 | 0.00 | 59 | 1007.9 |
| 20260505001159 | 25 | 185 | 17.7 | 20.9 | 0.00 | 0.00 | 0.00 | 59 | 1007.8 |
| 20260505000656 | 25 | 203 | 16.1 | 25.7 | 0.00 | 0.00 | 0.00 | 58 | 1007.9 |
| 20260505000154 | 25 | 200 | 17.7 | 25.7 | 0.00 | 0.00 | 0.00 | 58 | 1008.1 |
| 20260504235650 | 25 | 190 | 14.5 | 16.1 | 0.00 | 0.00 | 0.00 | 58 | 1008.2 |
| 20260504235147 | 25 | 185 | 11.3 | 14.5 | 0.00 | 0.00 | 0.00 | 58 | 1008.0 |
| 20260504234645 | 25 | 198 | 20.9 | 24.1 | 0.00 | 0.00 | 0.00 | 56 | 1008.3 |
| 20260504234142 | 25 | 181 | 20.9 | 25.7 | 0.00 | 0.00 | 0.00 | 56 | 1008.3 |
| 20260504233637 | 25 | 186 | 14.5 | 17.7 | 0.00 | 0.00 | 0.00 | 56 | 1008.2 |
| 20260504233133 | 25 | 207 | 19.3 | 22.5 | 0.00 | 0.00 | 0.00 | 55 | 1008.2 |
| 20260504232631 | 25 | 189 | 22.5 | 27.4 | 0.00 | 0.00 | 0.00 | 55 | 1008.4 |
| 20260504232127 | 25 | 174 | 16.1 | 16.1 | 0.00 | 0.00 | 0.00 | 55 | 1008.3 |
| 20260504231625 | 26 | 183 | 20.9 | 25.7 | 0.00 | 0.00 | 0.00 | 53 | 1008.3 |
| 20260504231121 | 26 | 190 | 14.5 | 16.1 | 0.00 | 0.00 | 0.00 | 54 | 1008.4 |
| 20260504230617 | 26 | 205 | 27.4 | 37.0 | 0.00 | 0.00 | 0.00 | 52 | 1008.9 |
| 20260504230116 | 26 | 159 | 22.5 | 29.0 | 0.00 | 0.00 | 0.00 | 52 | 1008.8 |
| 20260504225614 | 26 | 198 | 22.5 | 27.4 | 0.00 | 0.00 | 0.00 | 52 | 1008.6 |
| 20260504225110 | 26 | 174 | 16.1 | 22.5 | 0.00 | 0.00 | 0.00 | 52 | 1008.5 |
| 20260504224607 | 26 | 160 | 17.7 | 17.7 | 0.00 | 0.00 | 0.00 | 52 | 1008.6 |
| 20260504224104 | 26 | 190 | 20.9 | 24.1 | 0.00 | 0.00 | 0.00 | 51 | 1008.8 |
| 20260504223601 | 26 | 174 | 17.7 | 25.7 | 0.00 | 0.00 | 0.00 | 52 | 1008.7 |
| 20260504223056 | 26 | 180 | 24.1 | 27.4 | 0.00 | 0.00 | 0.00 | 51 | 1008.7 |
| 20260504222553 | 26 | 212 | 19.3 | 22.5 | 0.00 | 0.00 | 0.00 | 51 | 1008.8 |
| 20260504222050 | 26 | 165 | 20.9 | 25.7 | 0.00 | 0.00 | 0.00 | 50 | 1008.9 |
| 20260504221547 | 26 | 218 | 22.5 | 29.0 | 0.00 | 0.00 | 0.00 | 50 | 1009.0 |
| 20260504221044 | 26 | 189 | 27.4 | 32.2 | 0.00 | 0.00 | 0.00 | 48 | 1009.0 |
| 20260504220541 | 26 | 207 | 27.4 | 33.8 | 0.00 | 0.00 | 0.00 | 49 | 1009.1 |
| 20260504220038 | 26 | 218 | 19.3 | 24.1 | 0.00 | 0.00 | 0.00 | 49 | 1009.1 |
| 20260504215534 | 26 | 203 | 16.1 | 20.9 | 0.00 | 0.00 | 0.00 | 49 | 1009.2 |
| 20260504215032 | 26 | 192 | 24.1 | 29.0 | 0.00 | 0.00 | 0.00 | 48 | 1009.0 |
| 20260504214528 | 26 | 157 | 19.3 | 25.7 | 0.00 | 0.00 | 0.00 | 50 | 1009.3 |
| 20260504214024 | 26 | 184 | 27.4 | 32.2 | 0.00 | 0.00 | 0.00 | 48 | 1009.3 |
| 20260504213521 | 26 | 197 | 24.1 | 33.8 | 0.00 | 0.00 | 0.00 | 48 | 1009.5 |
| 20260504213018 | 26 | 196 | 24.1 | 29.0 | 0.00 | 0.00 | 0.00 | 48 | 1009.5 |
| 20260504212514 | 26 | 195 | 17.7 | 24.1 | 0.00 | 0.00 | 0.00 | 49 | 1009.9 |
| 20260504212011 | 26 | 191 | 22.5 | 24.1 | 0.00 | 0.00 | 0.00 | 47 | 1009.7 |
| 20260504211508 | 26 | 162 | 25.7 | 27.4 | 0.00 | 0.00 | 0.00 | 46 | 1009.9 |
| 20260504211006 | 26 | 197 | 27.4 | 35.4 | 0.00 | 0.00 | 0.00 | 46 | 1009.8 |
| 20260504210502 | 27 | 186 | 27.4 | 32.2 | 0.00 | 0.00 | 0.00 | 45 | 1009.9 |
| 20260504205959 | 26 | 205 | 22.5 | 29.0 | 0.00 | 0.00 | 0.00 | 45 | 1010.1 |
| 20260504205457 | 26 | 201 | 27.4 | 35.4 | 0.00 | 0.00 | 0.00 | 46 | 1010.0 |
| 20260504204955 | 26 | 174 | 29.0 | 32.2 | 0.00 | 0.00 | 0.00 | 45 | 1010.1 |
| 20260504204453 | 26 | 185 | 27.4 | 33.8 | 0.00 | 0.00 | 0.00 | 45 | 1010.4 |
| 20260504203952 | 26 | 217 | 24.1 | 29.0 | 0.00 | 0.00 | 0.00 | 44 | 1010.5 |
| 20260504203450 | 26 | 196 | 27.4 | 32.2 | 0.00 | 0.00 | 0.00 | 45 | 1010.6 |
| 20260504202945 | 26 | 193 | 24.1 | 27.4 | 0.00 | 0.00 | 0.00 | 45 | 1010.6 |
| 20260504202441 | 26 | 203 | 24.1 | 29.0 | 0.00 | 0.00 | 0.00 | 45 | 1010.7 |
| 20260504201938 | 26 | 168 | 25.7 | 29.0 | 0.00 | 0.00 | 0.00 | 45 | 1011.1 |
| 20260504201435 | 26 | 188 | 20.9 | 24.1 | 0.00 | 0.00 | 0.00 | 46 | 1011.0 |
| 20260504200933 | 26 | 202 | 19.3 | 22.5 | 0.00 | 0.00 | 0.00 | 46 | 1011.1 |
| 20260504200430 | 26 | 214 | 17.7 | 20.9 | 0.00 | 0.00 | 0.00 | 47 | 1011.4 |
| 20260504195926 | 26 | 205 | 17.7 | 24.1 | 0.00 | 0.00 | 0.00 | 47 | 1011.5 |
| 20260504195422 | 26 | 200 | 17.7 | 20.9 | 0.00 | 0.00 | 0.00 | 46 | 1011.5 |
| 20260504194919 | 25 | 135 | 16.1 | 20.9 | 0.00 | 0.00 | 0.00 | 47 | 1011.7 |
| 20260504194415 | 26 | 193 | 30.6 | 33.8 | 0.00 | 0.00 | 0.00 | 45 | 1011.4 |
| 20260504193911 | 25 | 194 | 22.5 | 32.2 | 0.00 | 0.00 | 0.00 | 46 | 1011.5 |
| 20260504193408 | 25 | 207 | 25.7 | 29.0 | 0.00 | 0.00 | 0.00 | 46 | 1011.7 |
| 20260504192907 | 26 | 186 | 17.7 | 20.9 | 0.00 | 0.00 | 0.00 | 46 | 1012.1 |
| 20260504192404 | 26 | 203 | 30.6 | 35.4 | 0.00 | 0.00 | 0.00 | 44 | 1011.9 |
| 20260504191903 | 26 | 159 | 16.1 | 20.9 | 0.00 | 0.00 | 0.00 | 45 | 1012.3 |
| 20260504191400 | 25 | 187 | 14.5 | 17.7 | 0.00 | 0.00 | 0.00 | 48 | 1012.2 |
| 20260504190855 | 26 | 196 | 20.9 | 25.7 | 0.00 | 0.00 | 0.00 | 45 | 1012.3 |
| 20260504190351 | 25 | 159 | 14.5 | 17.7 | 0.00 | 0.00 | 0.00 | 47 | 1012.1 |
| 20260504185848 | 25 | 194 | 12.9 | 14.5 | 0.00 | 0.00 | 0.00 | 48 | 1012.2 |
| 20260504185345 | 25 | 197 | 25.7 | 29.0 | 0.00 | 0.00 | 0.00 | 47 | 1012.3 |
| 20260504184841 | 25 | 190 | 24.1 | 27.4 | 0.00 | 0.00 | 0.00 | 48 | 1012.5 |
| 20260504184337 | 25 | 194 | 25.7 | 33.8 | 0.00 | 0.00 | 0.00 | 47 | 1012.4 |
| 20260504183833 | 25 | 183 | 27.4 | 33.8 | 0.00 | 0.00 | 0.00 | 45 | 1012.6 |
| 20260504183331 | 25 | 204 | 17.7 | 22.5 | 0.00 | 0.00 | 0.00 | 46 | 1012.7 |
| 20260504182828 | 25 | 195 | 24.1 | 32.2 | 0.00 | 0.00 | 0.00 | 45 | 1012.9 |
| 20260504182326 | 25 | 176 | 14.5 | 16.1 | 0.00 | 0.00 | 0.00 | 49 | 1012.9 |
| 20260504181822 | 25 | 229 | 20.9 | 27.4 | 0.00 | 0.00 | 0.00 | 47 | 1013.1 |
| 20260504181320 | 25 | 170 | 17.7 | 22.5 | 0.00 | 0.00 | 0.00 | 48 | 1013.2 |
| 20260504180819 | 25 | 190 | 22.5 | 29.0 | 0.00 | 0.00 | 0.00 | 46 | 1013.1 |
| 20260504180317 | 24 | 207 | 14.5 | 17.7 | 0.00 | 0.00 | 0.00 | 49 | 1013.0 |
| 20260504175815 | 24 | 190 | 22.5 | 25.7 | 0.00 | 0.00 | 0.00 | 47 | 1013.3 |
| 20260504175311 | 24 | 204 | 14.5 | 24.1 | 0.00 | 0.00 | 0.00 | 50 | 1013.4 |
| 20260504174809 | 24 | 193 | 29.0 | 35.4 | 0.00 | 0.00 | 0.00 | 46 | 1013.7 |
| 20260504174306 | 24 | 208 | 22.5 | 27.4 | 0.00 | 0.00 | 0.00 | 46 | 1013.5 |
| 20260504173803 | 24 | 167 | 19.3 | 25.7 | 0.00 | 0.00 | 0.00 | 47 | 1013.7 |
| 20260504173300 | 23 | 175 | 19.3 | 24.1 | 0.00 | 0.00 | 0.00 | 49 | 1013.5 |
| 20260504172756 | 23 | 202 | 17.7 | 22.5 | 0.00 | 0.00 | 0.00 | 49 | 1014.0 |
| 20260504172253 | 23 | 215 | 19.3 | 22.5 | 0.00 | 0.00 | 0.00 | 50 | 1013.9 |
| 20260504171749 | 23 | 211 | 25.7 | 29.0 | 0.00 | 0.00 | 0.00 | 48 | 1014.1 |
| 20260504171247 | 23 | 174 | 25.7 | 29.0 | 0.00 | 0.00 | 0.00 | 49 | 1014.3 |
| 20260504170743 | 23 | 202 | 20.9 | 24.1 | 0.00 | 0.00 | 0.00 | 50 | 1014.3 |
| 20260504170241 | 23 | 220 | 25.7 | 33.8 | 0.00 | 0.00 | 0.00 | 48 | 1014.4 |
| 20260504160159 | 22 | 201 | 22.5 | 25.7 | 0.00 | 0.00 | 0.00 | 52 | 1014.6 |
| 20260504151127 | 21 | 221 | 24.1 | 29.0 | 0.00 | 0.00 | 0.00 | 58 | 1015.1 |
| 20260504150624 | 20 | 207 | 20.9 | 24.1 | 0.00 | 0.00 | 0.00 | 62 | 1015.2 |
| 20260504150121 | 20 | 208 | 16.1 | 17.7 | 0.00 | 0.00 | 0.00 | 61 | 1015.4 |